Location: Corte Bragagnani
(45.3000°N, 11.1000°E)
Time: 13:50:35
(UTC+00:00)

SL-24 R/B - Pass Details

Date: 09 April 2020
Orbit: 505 x 1003 km, 97.4° (Epoch: 02 June)

Event Time Altitude Azimuth Distance (km) Brightness Sun altitude
Rises 18:46:24 0° 19° (NNE) 2,823 7.5 -9.6°
Reaches altitude 10° 18:48:46 10° 27° (NNE) 1,858 6.5 -10.0°
Maximum altitude 18:52:28 38° 97° (E) 822 4.2 -10.6°
Drops below altitude 10° 18:55:55 10° 167° (SSE) 1,726 6.0 -11.1°
Sets 18:58:02 0° 175° (S) 2,594 7.0 -11.5°
